This is the latest recevied weather packets stored in our database for station/object LA1HSA-13. If no packets are shown the sender has not sent any weather packets the latest 1 day(s).
| Time | Temp. | Humidity | Pressure | Rain* | Wind** | Luminosity | Snow |
|---|---|---|---|---|---|---|---|
| 1777966203 | 6.11° C | 49% | 1009.6 hPa | 0 mm | 0.89 m/s, 55° | - | - |
| 1777965603 | 5.56° C | 48% | 1009.7 hPa | 0 mm | 0.89 m/s, 48° | - | - |
| 1777965003 | 5.56° C | 49% | 1009.3 hPa | 0 mm | 0.89 m/s, 40° | - | - |
| 1777964403 | 5.56° C | 50% | 1009.4 hPa | 0 mm | 1.34 m/s, 74° | - | - |
| 1777963803 | 5° C | 49% | 1009.3 hPa | 0 mm | 0.45 m/s, 71° | - | - |
| 1777963203 | 4.44° C | 52% | 1009 hPa | 0 mm | 1.34 m/s, 74° | - | - |
| 1777962603 | 4.44° C | 53% | 1009.3 hPa | 0 mm | 0.89 m/s, 92° | - | - |
| 1777962003 | 4.44° C | 54% | 1009.4 hPa | 0 mm | 0.89 m/s, 70° | - | - |
| 1777961403 | 3.89° C | 56% | 1009.3 hPa | 0 mm | 0.45 m/s, 67° | - | - |
| 1777960803 | 3.33° C | 56% | 1009.1 hPa | 0 mm | 0.89 m/s, 80° | - | - |
| 1777960203 | 2.78° C | 61% | 1009.2 hPa | 0 mm | 0 m/s | - | - |
| 1777959603 | 2.78° C | 61% | 1009.1 hPa | 0 mm | 0.89 m/s, 38° | - | - |
| 1777959003 | 2.22° C | 60% | 1009.3 hPa | 0 mm | 0.89 m/s, 51° | - | - |
| 1777958403 | 1.67° C | 62% | 1009.1 hPa | 0 mm | 0.45 m/s, 66° | - | - |
| 1777957803 | 1.67° C | 65% | 1009.2 hPa | 0 mm | 0 m/s | - | - |
| 1777957203 | 1.11° C | 66% | 1009 hPa | 0 mm | 0 m/s | - | - |
| 1777956603 | 0.56° C | 69% | 1009 hPa | 0 mm | 0 m/s | - | - |
| 1777956003 | -0.56° C | 75% | 1008.8 hPa | 0 mm | 0 m/s | - | - |
| 1777955403 | -1.11° C | 79% | 1008.7 hPa | 0 mm | 0 m/s | - | - |
| 1777954803 | -1.11° C | 78% | 1008.7 hPa | 0 mm | 0 m/s | - | - |
| 1777954203 | -1.11° C | 77% | 1008.8 hPa | 0 mm | 0 m/s | - | - |
* Rain latest hour (hover to see other rain measurements)
** Current wind speed in m/s (hover to see current wind gust speed)